Location: Red Deer
(52.2681°N, 113.8112°W)
Time: 00:40:51
(UTC-07:00)

BlueWalker 3 - Pass Details

Date: 02 December 2022
Orbit: 499 x 517 km, 53.2° (Epoch: 29 January)

Event Time Altitude Azimuth Distance (km) Brightness Sun altitude
Rises 20:05:04 0° 286° (WNW) 2,625 6.7 -32.5°
Reaches altitude 10° 20:07:17 10° 284° (WNW) 1,733 5.5 -32.8°
Enters shadow 20:08:13 17° 281° (WNW) 1,369 4.8 -33.0°
